Location: Recife
(8.0585°S, 34.8848°W)
Time: 07:09:11
(UTC-03:00)

Vanguard 3 - Pass Details

Date: 15 April 2026
Orbit: 507 x 3205 km, 33.4° (Epoch: 13 May)

Event Time Altitude Azimuth Distance (km) Brightness Sun altitude
Rises 10:27:20 0° 265° (W) 5,946 11.4 67.8°
Reaches altitude 10° 10:31:29 10° 256° (WSW) 5,272 11.2 68.4°
Maximum altitude 10:46:16 35° 195° (SSW) 4,283 11.1 70.2°
Drops below altitude 10° 11:03:17 10° 135° (SE) 5,990 11.6 71.6°
Sets 11:08:30 0° 126° (SE) 6,805 11.8 71.8°
